COSMOS 2251 DEB, 35891

Orbit data source: Space-Track

COSMOS 2251 DEB, 35891 is space debris in LEO originally from a launch on Wed, 16 Jun 1993 UTC launched from the Plesetsk Missile And Space Complex (PKMTR). The debris from Iridium 33, an American commercial communications satellite, has been tracked extensively since its accidental collision with the defunct Russian satellite Cosmos 2251 in 2009. This event, occurring at high speed in low Earth orbit (LEO), generated thousands of pieces of space debris, significantly increasing the risk of further collisions. The Iridium 33 debris cloud has impacted space traffic management and orbital debris mitigation strategies, making it a subject of ongoing study in space situational awareness.

Loading next visibility...
Identifier
35891, 1993-036AUE
Orbit
LEO
Country
Flag of CISCIS
Related business
Manufacturer
Unknown
Mission
Spacecraft
Bus & Motor
Unknown
Mass
Unknown
Launch date (UTC)
1993-06-16 (33 years ago)
Launch vehicle
Unknown
Launch site
Plesetsk Missile And Space Complex (PKMTR)
Object type
Payload
Rocket body
Debris
Shape & HBR
Unknown shape, 0.1 m
Radar Cross Section
Small (<0.1 m²)

Expand to show TLE details & history
Last TLE update: 1 day ago

TLE from 1 day ago
0 COSMOS 2251 DEB
1 35891U 93036AUE 26122.39173787  .00064946  00000-0  11265-2 0  9991
2 35891  73.9801 148.4468 0036102 245.4563 114.2885 15.49827640693870
Epoch: 2026-05-02T09:24Z
TLE epoch observation values (Epoch: 2026-05-02T09:24:06.151Z)
Latitude
-0.00007°
Longitude
147.11084°
Altitude
430.14 km
Speed
7.648 km/s
True Right ascension
09h 53m 47s
True Declination
0° 00' 00"
Sunlit
Object was in daylight at epoch
Visualization orbit readout
Latitude
Unknown
Longitude
Unknown
Altitude
Unknown
Speed
Unknown
Apparent Right ascension
Unknown
Apparent Declination
Unknown
Sunlit
N/A
Visualization observer readout
Local Sidereal Time
17:12:37
Azimuth
Unknown
Elevation
Unknown
Doppler factor
Unknown
Orbital elements
Apogee altitude
439.258 km
Perigee altitude
390.211 km
Semi-major axis
6,792.871 km
Eccentricity
0.00361
Inclination
73.9801°
RAAN
148.4468°
Arg. of periapsis
245.4563°
True anomaly
114.66488°
Mean anomaly
114.2885°
Eccentric anomaly
114.47676°
Mean motion
3.87671 °/min
Orbital period
92.86 mins
BSTAR
0.0011265
Loading maneuver chart data...
Computing Atmospheric mass density...
Loading historical data...
Loading historical data...
Loading historical data...
Loading historical data...
Loading historical data...
Loading historical data...
Loading historical data...

Documentation

Showing up to 5 results
|